Skip Page Navigation
NASA JPL Caltech
NASA Logo - Jet Propulsion Laboratory + View the NASA Portal
+ Near-Earth Object (NEO) Program
Search JPL
JPL Home Earth Solar System Stars & Galaxies Technology
JPL Solar System Dynamics
BODIES ORBITS EPHEMERIDES TOOLS PHYSICAL DATA DISCOVERY FAQ SITE MAP
JPL Small-Body Database Browser
Search: [ help ]  
2849 Shklovskij (1976 GN3)
Classification: Main-belt Asteroid          SPK-ID: 2002849
Ephemeris | Orbit Diagram | Orbital Elements | Physical Parameters | Discovery Circumstances ]

[ hide orbit diagram ]
Orbit Diagram
Note: Make sure you have Java enabled on your browser to see the applet. This applet is provided as a 3D orbit visualization tool. The applet was implemented using 2-body methods, and hence should not be used for determining accurate long-term trajectories (over several years or decades) or planetary encounter circumstances. For accurate long-term ephemerides, please instead use our Horizons system.
Orbit Viewer

Additional Notes: the orbits shown in the applet are color coded. The planets are white lines, and the asteroid/comet is a blue line. The bright white line indicates the portion of the orbit that is above the ecliptic plane, and the darker portion is below the ecliptic plane. Likewise for the asteroid/comet orbit, the light blue indicates the portion above the ecliptic plane, and the dark blue the portion below the ecliptic plane.

Orbit Viewer applet originally written and kindly provided by Osamu Ajiki (AstroArts), and further modified by Ron Baalke (JPL).


Orbital Elements at Epoch 2456400.5 (2013-Apr-18.0) TDB
Reference: JPL 1 (heliocentric ecliptic J2000)
 Element Value Uncertainty (1-sigma)   Units 
e .01050226767734442 5.9419e-08  
a 2.565916295698415 2.1082e-08 AU
q 2.53896835592333 1.5709e-07 AU
i 6.809672291744023 6.7661e-06 deg
node 44.0866926189227 4.6737e-05 deg
peri 294.1527387777421 0.00032532 deg
M 229.7634099837954 0.00032287 deg
tp 2456943.616091116957
(2014-Oct-13.11609112)
0.001348 JED
period 1501.281573617498
4.11
1.8502e-05
5.066e-08
d
yr
n .2397951232642798 2.9553e-09 deg/d
Q 2.5928642354735 2.1303e-08 AU
  Orbit Determination Parameters
   # obs. used (total)      1238  
   data-arc span      16406 days (44.92 yr)  
   first obs. used      1968-05-22  
   last obs. used      2013-04-22  
   planetary ephem.      DE405  
   SB-pert. ephem.      SB405-CPV-2  
   condition code      0  
   fit RMS      .51887  
   data source      ORB  
   producer      Otto Matic  
   solution date      2013-Apr-29 12:54:24  

Additional Information
 Earth MOID = 1.53906 AU 
 T_jup = 3.422 
[ show covariance matrix ]

Ephemeris | Orbit Diagram | Orbital Elements | Physical Parameters | Discovery Circumstances ]

Physical Parameter Table
Parameter Symbol Value Units Sigma Reference Notes
absolute magnitude H 12.7 mag n/a PDS3 (MPC 17267)  
diameter diameter 15.1 km n/a DASTCOM value unverified
geometric albedo albedo 0.0642   0.017 EAR-A-5-DDR-ALBEDOS-V1.0:IMPS IMPS quality code 2: from the PDS IMPS singleton file

2849 Shklovskij (1976 GN3)          Discovered 1976-Apr-01 by Chernykh, N. at Nauchnyj
Reference: DISCOVERY.DBLast Updated: 2003-08-29

Alternate Designations
 1976 GN3 = 1968 KE = 1972 HA = 1980 GU 
Ephemeris | Orbit Diagram | Orbital Elements | Physical Parameters | Discovery Circumstances ]
ABOUT SSD CREDITS/AWARDS PRIVACY/COPYRIGHT GLOSSARY LINKS
FirstGov 2013-Jun-19 09:58 UT
(server date/time)  
NASA Home Page
Site Manager:   Donald K. Yeomans
Webmaster  Alan B. Chamberlin